Regional Weather Roundup
Issued by NWS Upton, NY

Current Version | Previous Version | Graphics & Text | Print | Product List | Glossary Off
Versions: 1 2 3 4 5 6 7 8 9 10 11 12 13 14 15 16 17 18 19 20 21 22 23 24 25 26

000
ASUS41 KOKX 201105
RWROKX

REGIONAL WEATHER ROUNDUP
NATIONAL WEATHER SERVICE NEW YORK NY
700 AM EDT SUN APR 20 2014

NOTE: "FAIR" INDICATES FEW OR NO CLOUDS BELOW 12,000 FEET WITH NO
SIGNIFICANT WEATHER AND/OR OBSTRUCTIONS TO VISIBILITY.

NYZ071-072-176-178-NJZ106-104-201200-
NEW YORK CITY METRO AREA


CITY           SKY/WX    TMP DP  RH WIND       PRES   REMARKS
CENTRAL PARK   PTCLDY    46  31  55 E9        30.49R
LAGUARDIA APRT MOCLDY    46  30  53 E12       30.47R
KENNEDY INTL   MOCLDY    46  28  49 NE9       30.47R
NEWARK/LIBERTY MOCLDY    48  30  49 NE14      30.46R
TETERBORO      PTCLDY    48  27  44 NE5       30.46R
$$

NYZ177-179-078>081-201200-
LONG ISLAND NEW YORK

CITY           SKY/WX    TMP DP  RH WIND       PRES   REMARKS
FARMINGDALE    PTCLDY    44  26  49 E5        30.47R
ISLIP          MOCLDY    44  26  49 NE6       30.46R
SHIRLEY        PTCLDY    41  30  65 VRB3      30.48R
WESTHAMPTON    PTCLDY    45  27  49 NE9       30.48R
MONTAUK POINT    N/A     44  31  60 N6        30.49R
$$

NYZ052-065-067-201200-
HUDSON VALLEY

CITY           SKY/WX    TMP DP  RH WIND       PRES   REMARKS
WHITE PLAINS   PTCLDY    43  24  47 NE7       30.45R
NEWBURGH       PTCLDY    39  27  60 NE8       30.48S WCI  34
MONTGOMERY     PTCLDY    36  27  69 N8        30.47R WCI  30
POUGHKEEPSIE   PTCLDY    34  27  75 CALM      30.48R
ALBANY         PTCLDY    31  24  75 CALM      30.50R
$$

NJZ001-105-106-008-010-013-015-019>022-104-201200-
NEW JERSEY

CITY           SKY/WX    TMP DP  RH WIND       PRES   REMARKS
NEWARK/LIBERTY MOCLDY    48  30  49 NE14      30.46R
TETERBORO      PTCLDY    48  27  44 NE5       30.46R
CALDWELL       PTCLDY    44  27  51 NE5       30.47R
MORRISTOWN     MOCLDY    41  28  60 NE5       30.47R
SOMERVILLE     MOCLDY    46  28  49 E5        30.44R
LINDEN         FAIR      49  32  51 E9        30.48R
SUSSEX         PTCLDY    42  26  53 NE3       30.46R
ANDOVER          N/A     40  28  62 NE5       30.45R
TRENTON        MOCLDY    46  33  60 E12       30.44R
MILLVILLE      CLOUDY    46  35  65 E12       30.39R
ATLANTIC CITY  CLOUDY    46  33  60 NE15G28   30.39R
WRIGHTSTOWN    CLOUDY    45  32  60 E10       30.41R
TOMS RIVER     CLOUDY    46  30  53 E7        30.44R
BELMAR         MOCLDY    45  30  57 NE12G18   30.43S
$$

PAZ047>061-062-071-201200-
EASTERN PENNSYLVANIA

CITY           SKY/WX    TMP DP  RH WIND       PRES   REMARKS
PHILADELPHIA   CLOUDY    48  34  58 E17       30.43R
ALLENTOWN      PTCLDY    43  27  53 E7        30.44R
SCRANTON       PTCLDY    40  25  55 NE8       30.43R WCI  34
$$

CTZ002-004>006-009-010-012-RIZ004-006-007-MAZ004-011-015-201200-
SOUTHERN NEW ENGLAND
 IN CT

CITY           SKY/WX    TMP DP  RH WIND       PRES   REMARKS
BRADLEY INTL   MOCLDY    36  26  67 NE6       30.50R WCI  31
HARTFORD       CLEAR     38  27  64 NE5       30.50R WCI  34
DANBURY        PTCLDY    36  27  69 CALM      30.49R
WTRBRY/OXFORD  CLEAR     39  21  48 NE6       30.49R WCI  35
BRIDGEPORT     PTCLDY    45  27  49 NE8       30.48R
MERIDEN        CLEAR     37  28  70 CALM      30.49R
NEW HAVEN      MOCLDY    42  28  57 N7        30.49R
CHESTER        FAIR      41  27  56 NE3       30.48R
GROTON         SUNNY     41  27  57 N6        30.49R
WILLIMANTIC    CLEAR     33  28  81 CALM      30.50R

 IN RI

CITY           SKY/WX    TMP DP  RH WIND       PRES   REMARKS
PROVIDENCE     MOSUNNY   41  25  53 N8        30.49R
BLOCK ISLAND   MOSUNNY   43  30  61 NE8       30.48R
WESTERLY       SUNNY     39  27  62 CALM      30.49R

 IN MA

CITY           SKY/WX    TMP DP  RH WIND       PRES   REMARKS
BOSTON         SUNNY     42  23  46 N8        30.50R
WORCESTER      SUNNY     38  20  48 N9        30.47R WCI  31
WESTFIELD      PTCLDY    32  27  81 N5        30.50R WCI  27
PROVINCETOWN   SUNNY     43  34  70 MISG      30.49R
NANTUCKET      SUNNY     42  34  73 NE10      30.45R
$$

ANZ330-335-338-340-345-350-353-355-201200-
COASTAL MARINE OBSERVATIONS


STATION/POSITION TIME  SKY/WX   TEMP    WIND        PRES    VSBY  WAVE
                                AIR SEA DIR/SP/G                  HT/PER
                 (UTC)          (F)     (DEG/KT/KT) (MB)    (MI)  (FT/S)
NY HARB ENTRANCE 1100            45 44  270/ 14/ 16 1030.8
4S FIRE IS       1000               45                N/A           4/10
23SW MTP         1100            43 42   50/ 12/ 14 1031.4          3/ 9
HUDSON CANYON    1000            45 44   60/ 19/ 23 1028.6          5/ 9
EXECUTION ROCKS  1100            45 44   60/  8/ 12   N/A
WESTERN LI SOUND 1100            45      40/ 10/ 12   N/A           1
CENTRAL LI SOUND 1000            43 42  360/  8/ 10   N/A           0
EASTERN LI SOUND NOT AVBL
ROBBINS REEF     1100            47      70/ 15/ 17   N/A
$$


>>>>>>>>>>>>>>>>>>>>>>>>>>>> KEY <<<<<<<<<<<<<<<<<<<<<<<<<<<
>                                                          <
>     SKY/WX - SKY CONDITION/PRESENT WEATHER               <
>     TMP    - TEMPERATURE IN FAHRENHEIT                   <
>     DP     - DEWPOINT IN FAHRENHEIT                      <
>     RH     - RELATIVE HUMIDITY IN PERCENT                <
>     WIND   - DIRECTION AND SPEED IN MPH                  <
>     PRES   - MEAN SEA LEVEL PRESSURE IN INCHES OF HG     <
>     WCI    - WIND CHILL INDEX                            <
>     VSB    - VISIBILITY IN MILES                         <
>     HX     - HEAT INDEX                                  <
>     TC     - TEMPERATURE IN CELSIUS                      <
>     VRB    - VARIABLE WIND DIRECTION                     <
>                                                          <
>>>>>>>>>>>>>>>>>>>>>>>>>>>> KEY <<<<<<<<<<<<<<<<<<<<<<<<<<<





USA.gov is the U.S. government's official web portal to all federal, state and local government web resources and services.